DAL557 KATL-KLGA

Flight info

Callsign DAL557
Flight time N/A
Altitude 35000
Route JACCC2 KELLN BYJAC Q60 HURTS PROUD2
Aircraft A321/M-SDE3FGHIRWY/LB1

Departure

Time 2026-05-07 20:51
Airport Hartsfield Jackson Atlanta International Airport (KATL)

Arrival

Time N/A
Airport LaGuardia Airport (KLGA)
Time Latitude Longitude Altitude Speed Heading
2026-05-07 19:55 33.63917 -84.43531 1007 ft 0 kts 268°
2026-05-07 20:34 33.63917 -84.43529 1006 ft 2 kts 268°
2026-05-07 20:34 33.63918 -84.43502 1006 ft 4 kts 261°
2026-05-07 20:34 33.63926 -84.43473 1006 ft 4 kts 228°
2026-05-07 20:34 33.63945 -84.43459 1006 ft 2 kts 180°
2026-05-07 20:35 33.63947 -84.43459 1006 ft 0 kts 180°
2026-05-07 20:43 33.63934 -84.43459 1006 ft 5 kts 180°
2026-05-07 20:43 33.63871 -84.43459 1006 ft 13 kts 180°
2026-05-07 20:43 33.63758 -84.43459 1006 ft 20 kts 181°
2026-05-07 20:44 33.63681 -84.43447 1006 ft 7 kts 142°
2026-05-07 20:44 33.63665 -84.43400 1006 ft 6 kts 97°
2026-05-07 20:44 33.63664 -84.43357 1006 ft 5 kts 90°
2026-05-07 20:44 33.63665 -84.43280 1006 ft 13 kts 90°
2026-05-07 20:45 33.63664 -84.43141 1006 ft 20 kts 91°
2026-05-07 20:45 33.63665 -84.42940 1006 ft 28 kts 89°
2026-05-07 20:45 33.63662 -84.42680 1007 ft 34 kts 94°
2026-05-07 20:45 33.63657 -84.42402 1007 ft 32 kts 90°
2026-05-07 20:46 33.63657 -84.42152 1007 ft 28 kts 90°
2026-05-07 20:46 33.63656 -84.41926 1006 ft 26 kts 90°
2026-05-07 20:46 33.63656 -84.41711 1006 ft 25 kts 90°
2026-05-07 20:46 33.63657 -84.41510 1006 ft 23 kts 90°
2026-05-07 20:47 33.63656 -84.41321 1006 ft 22 kts 91°
2026-05-07 20:47 33.63656 -84.41146 1006 ft 20 kts 90°
2026-05-07 20:47 33.63656 -84.40985 1006 ft 18 kts 89°
2026-05-07 20:47 33.63657 -84.40846 1006 ft 14 kts 88°
2026-05-07 20:48 33.63641 -84.40750 1007 ft 10 kts 133°
2026-05-07 20:48 33.63579 -84.40742 1007 ft 8 kts 180°
2026-05-07 20:48 33.63571 -84.40742 1007 ft 0 kts 181°
2026-05-07 20:49 33.63533 -84.40744 1007 ft 11 kts 182°
2026-05-07 20:49 33.63474 -84.40826 1007 ft 20 kts 268°
2026-05-07 20:50 33.63472 -84.40877 1007 ft 0 kts 269°
2026-05-07 20:50 33.63472 -84.40878 1007 ft 1 kts 269°
2026-05-07 20:50 33.63472 -84.41057 1006 ft 60 kts 270°
2026-05-07 20:51 33.63472 -84.41883 1007 ft 135 kts 270°
2026-05-07 20:51 33.63452 -84.43239 1118 ft 181 kts 271°
2026-05-07 20:51 33.63426 -84.44769 1861 ft 186 kts 271°
2026-05-07 20:51 33.63408 -84.46333 2702 ft 190 kts 271°
2026-05-07 20:52 33.63253 -84.47984 3149 ft 210 kts 252°
2026-05-07 20:52 33.62502 -84.49516 3690 ft 214 kts 239°
2026-05-07 20:52 33.61665 -84.51070 3926 ft 231 kts 242°
2026-05-07 20:52 33.60841 -84.52839 4202 ft 252 kts 245°
2026-05-07 20:53 33.60072 -84.54731 4991 ft 252 kts 246°
2026-05-07 20:53 33.59284 -84.56606 5868 ft 252 kts 240°
2026-05-07 20:53 33.58099 -84.58159 6681 ft 258 kts 219°
2026-05-07 20:53 33.56379 -84.58969 7217 ft 277 kts 195°
2026-05-07 20:54 33.54414 -84.59087 7824 ft 288 kts 185°
2026-05-07 20:54 33.52404 -84.58929 8540 ft 290 kts 182°
2026-05-07 20:54 33.50372 -84.58714 9154 ft 296 kts 183°
2026-05-07 20:54 33.48320 -84.58267 9823 ft 310 kts 165°
2026-05-07 20:55 33.46492 -84.56760 10367 ft 332 kts 135°
2026-05-07 20:55 33.45347 -84.54306 10959 ft 350 kts 109°
2026-05-07 20:55 33.44903 -84.51345 11245 ft 370 kts 94°
2026-05-07 20:55 33.44891 -84.48183 11507 ft 390 kts 84°
2026-05-07 20:56 33.45152 -84.44890 11804 ft 405 kts 82°
2026-05-07 20:56 33.45456 -84.41486 12256 ft 415 kts 82°
2026-05-07 20:56 33.45702 -84.38016 12799 ft 422 kts 83°
2026-05-07 20:56 33.46088 -84.34458 13280 ft 428 kts 76°
2026-05-07 20:57 33.46838 -84.31017 13836 ft 428 kts 66°
2026-05-07 20:57 33.47986 -84.27730 14261 ft 428 kts 58°
2026-05-07 20:57 33.49355 -84.24550 14714 ft 431 kts 55°
2026-05-07 20:57 33.50827 -84.21404 15174 ft 435 kts 53°
2026-05-07 20:58 33.52348 -84.18246 15621 ft 440 kts 54°
2026-05-07 20:58 33.53874 -84.15049 16067 ft 445 kts 54°
2026-05-07 20:58 33.55393 -84.11786 16521 ft 451 kts 55°
2026-05-07 20:58 33.56897 -84.08467 16970 ft 456 kts 56°
2026-05-07 20:59 33.58395 -84.05091 17404 ft 461 kts 57°
2026-05-07 20:59 33.59387 -84.02830 17679 ft 464 kts 57°
2026-05-07 20:59 33.60897 -83.99382 18112 ft 469 kts 57°
2026-05-07 20:59 33.62424 -83.95905 18510 ft 474 kts 57°
2026-05-07 21:00 33.63970 -83.92401 18912 ft 477 kts 57°
2026-05-07 21:00 33.65528 -83.88875 19334 ft 479 kts 57°
2026-05-07 21:00 33.67094 -83.85337 19756 ft 482 kts 57°
2026-05-07 21:00 33.68671 -83.81775 20157 ft 484 kts 57°
2026-05-07 21:01 33.70277 -83.78147 20550 ft 487 kts 57°
2026-05-07 21:01 33.71867 -83.74552 20943 ft 489 kts 57°
2026-05-07 21:01 33.73466 -83.70927 21346 ft 492 kts 57°
2026-05-07 21:01 33.75068 -83.67292 21746 ft 494 kts 57°
2026-05-07 21:02 33.76701 -83.63657 22138 ft 495 kts 56°
2026-05-07 21:02 33.78455 -83.60095 22504 ft 495 kts 53°
2026-05-07 21:02 33.80317 -83.56603 22850 ft 498 kts 50°
2026-05-07 21:02 33.82255 -83.53135 23141 ft 501 kts 50°
2026-05-07 21:03 33.84221 -83.49659 23474 ft 504 kts 50°
2026-05-07 21:03 33.86187 -83.46149 23754 ft 507 kts 51°
2026-05-07 21:03 33.88131 -83.42598 24018 ft 510 kts 51°
2026-05-07 21:03 33.90059 -83.39000 24316 ft 512 kts 52°
2026-05-07 21:04 33.91976 -83.35370 24610 ft 515 kts 52°
2026-05-07 21:04 33.93892 -83.31720 24907 ft 517 kts 52°
2026-05-07 21:04 33.95822 -83.28047 25210 ft 519 kts 52°
2026-05-07 21:04 33.97763 -83.24371 25495 ft 521 kts 51°
2026-05-07 21:05 33.99720 -83.20685 25777 ft 524 kts 51°
2026-05-07 21:05 34.01690 -83.16983 26054 ft 526 kts 51°
2026-05-07 21:05 34.03674 -83.13259 26353 ft 529 kts 51°
2026-05-07 21:05 34.05667 -83.09513 26585 ft 532 kts 51°
2026-05-07 21:06 34.07662 -83.05742 26837 ft 535 kts 51°
2026-05-07 21:06 34.09662 -83.01945 27119 ft 537 kts 51°
2026-05-07 21:06 34.11668 -82.98128 27392 ft 539 kts 51°
2026-05-07 21:06 34.13679 -82.94302 27666 ft 541 kts 51°
2026-05-07 21:07 34.15699 -82.90449 27930 ft 544 kts 51°
2026-05-07 21:07 34.17724 -82.86580 28188 ft 546 kts 51°
2026-05-07 21:07 34.19752 -82.82691 28446 ft 548 kts 51°
2026-05-07 21:07 34.21804 -82.78747 28702 ft 550 kts 51°
2026-05-07 21:08 34.23819 -82.74866 28961 ft 551 kts 51°
2026-05-07 21:08 34.25859 -82.70938 29198 ft 553 kts 51°
2026-05-07 21:08 34.27914 -82.66983 29415 ft 557 kts 51°
2026-05-07 21:08 34.29981 -82.63007 29605 ft 559 kts 51°
2026-05-07 21:09 34.32053 -82.59022 29808 ft 562 kts 51°
2026-05-07 21:09 34.34162 -82.54954 30014 ft 564 kts 51°
2026-05-07 21:09 34.36244 -82.50931 30215 ft 566 kts 51°
2026-05-07 21:09 34.38335 -82.46883 30437 ft 567 kts 51°
2026-05-07 21:10 34.40421 -82.42836 30710 ft 566 kts 51°
2026-05-07 21:10 34.42505 -82.38789 30978 ft 566 kts 51°
2026-05-07 21:10 34.44583 -82.34740 31282 ft 566 kts 52°
2026-05-07 21:10 34.46604 -82.30644 31558 ft 567 kts 54°
2026-05-07 21:11 34.48547 -82.26473 31833 ft 569 kts 56°
2026-05-07 21:11 34.50433 -82.22245 32118 ft 570 kts 56°
2026-05-07 21:11 34.54670 -82.14237 32605 ft 557 kts 41°
2026-05-07 21:12 34.57201 -82.10700 32870 ft 555 kts 40°
2026-05-07 21:12 34.59762 -82.07197 33141 ft 554 kts 39°
2026-05-07 21:12 34.62334 -82.03710 33407 ft 554 kts 39°
2026-05-07 21:12 34.64904 -82.00224 33680 ft 554 kts 40°
2026-05-07 21:13 34.67467 -81.96723 33940 ft 554 kts 40°
2026-05-07 21:13 34.70019 -81.93217 34168 ft 554 kts 40°
2026-05-07 21:13 34.72567 -81.89698 34452 ft 554 kts 39°
2026-05-07 21:13 34.75106 -81.86177 34696 ft 553 kts 40°
2026-05-07 21:14 34.77642 -81.82653 34817 ft 554 kts 39°
2026-05-07 21:14 34.80166 -81.79143 34855 ft 550 kts 39°
2026-05-07 21:14 34.85190 -81.72154 34853 ft 548 kts 39°
2026-05-07 21:15 34.90212 -81.65176 34851 ft 547 kts 40°
2026-05-07 21:15 34.95228 -81.58189 34853 ft 548 kts 40°
2026-05-07 21:16 35.00258 -81.51182 34841 ft 549 kts 39°
2026-05-07 21:16 35.05315 -81.44120 34843 ft 549 kts 39°
2026-05-07 21:17 35.10338 -81.37075 34845 ft 550 kts 40°
2026-05-07 21:17 35.15357 -81.30019 34854 ft 551 kts 39°
2026-05-07 21:18 35.20376 -81.22960 34874 ft 550 kts 39°
2026-05-07 21:18 35.25382 -81.15895 34870 ft 549 kts 39°
2026-05-07 21:19 35.30378 -81.08840 34869 ft 548 kts 39°
2026-05-07 21:19 35.35367 -81.01775 34868 ft 548 kts 39°
2026-05-07 21:20 35.40349 -80.94704 34873 ft 548 kts 39°
2026-05-07 21:20 35.45331 -80.87624 34842 ft 547 kts 39°
2026-05-07 21:21 35.50301 -80.80540 34846 ft 548 kts 39°
2026-05-07 21:21 35.55283 -80.73435 34858 ft 550 kts 39°
2026-05-07 21:22 35.60273 -80.66300 34862 ft 551 kts 39°
2026-05-07 21:22 35.65260 -80.59146 34893 ft 551 kts 39°
2026-05-07 21:23 35.70245 -80.51980 34904 ft 552 kts 39°
2026-05-07 21:23 35.75239 -80.44796 34905 ft 552 kts 39°
2026-05-07 21:24 35.80223 -80.37605 34926 ft 552 kts 39°
2026-05-07 21:24 35.85224 -80.30353 34926 ft 552 kts 39°
2026-05-07 21:25 35.90206 -80.23135 34900 ft 553 kts 39°
2026-05-07 21:25 35.95184 -80.15887 34873 ft 557 kts 43°
2026-05-07 21:26 35.99561 -80.07861 34904 ft 565 kts 49°
2026-05-07 21:26 36.03818 -79.99711 34925 ft 565 kts 49°
2026-05-07 21:27 36.08074 -79.91563 34975 ft 565 kts 49°
2026-05-07 21:27 36.12434 -79.83478 34923 ft 564 kts 46°
2026-05-07 21:28 36.16986 -79.75596 34897 ft 562 kts 45°
2026-05-07 21:28 36.21561 -79.67747 34913 ft 562 kts 46°
2026-05-07 21:29 36.26066 -79.59830 34919 ft 563 kts 47°
2026-05-07 21:29 36.30535 -79.51849 34933 ft 564 kts 47°
2026-05-07 21:30 36.35008 -79.43871 34896 ft 563 kts 47°
2026-05-07 21:30 36.39493 -79.35889 34904 ft 564 kts 47°
2026-05-07 21:31 36.43977 -79.27908 34920 ft 564 kts 47°
2026-05-07 21:31 36.48462 -79.19908 34922 ft 564 kts 47°
2026-05-07 21:32 36.52211 -79.13184 34966 ft 565 kts 47°
2026-05-07 21:32 36.56689 -79.05141 34894 ft 566 kts 47°
2026-05-07 21:33 36.61158 -78.97076 34910 ft 566 kts 47°
2026-05-07 21:33 36.65593 -78.88994 34926 ft 566 kts 48°
2026-05-07 21:34 36.70018 -78.80893 34923 ft 565 kts 48°
2026-05-07 21:34 36.73910 -78.72250 34921 ft 574 kts 56°
2026-05-07 21:35 36.77612 -78.63426 34909 ft 575 kts 57°
2026-05-07 21:35 36.81316 -78.54567 34922 ft 576 kts 57°
2026-05-07 21:36 36.85018 -78.45689 34930 ft 576 kts 57°
2026-05-07 21:36 36.88716 -78.36806 34934 ft 577 kts 57°
2026-05-07 21:37 36.92412 -78.27909 34921 ft 577 kts 57°
2026-05-07 21:37 36.96120 -78.18949 34910 ft 577 kts 57°
2026-05-07 21:38 36.99799 -78.10032 34913 ft 577 kts 57°
2026-05-07 21:38 37.03481 -78.01093 34915 ft 578 kts 57°
2026-05-07 21:39 37.07160 -77.92144 34896 ft 578 kts 57°
2026-05-07 21:39 37.10828 -77.83189 34914 ft 579 kts 57°
2026-05-07 21:40 37.14480 -77.74218 34913 ft 577 kts 57°
2026-05-07 21:40 37.18129 -77.65251 34913 ft 578 kts 57°
2026-05-07 21:41 37.21782 -77.56260 34915 ft 578 kts 58°
2026-05-07 21:41 37.25437 -77.47241 34941 ft 581 kts 58°
2026-05-07 21:42 37.29085 -77.38182 34976 ft 581 kts 58°
2026-05-07 21:42 37.32705 -77.29158 34927 ft 578 kts 58°
2026-05-07 21:43 37.36326 -77.20139 34917 ft 578 kts 58°
2026-05-07 21:43 37.39956 -77.11097 34944 ft 580 kts 58°
2026-05-07 21:44 37.43760 -77.02194 34948 ft 572 kts 49°
2026-05-07 21:44 37.46151 -76.98256 34946 ft 561 kts 39°
2026-05-07 21:44 37.48879 -76.94818 34951 ft 548 kts 29°
2026-05-07 21:45 37.51855 -76.91947 34927 ft 531 kts 20°
2026-05-07 21:45 37.54991 -76.89618 34921 ft 517 kts 13°
2026-05-07 21:45 37.61369 -76.85398 34899 ft 519 kts 14°
2026-05-07 21:46 37.67835 -76.81107 34938 ft 524 kts 14°
2026-05-07 21:46 37.74281 -76.76793 34939 ft 524 kts 14°
2026-05-07 21:47 37.80711 -76.72475 34942 ft 523 kts 14°
2026-05-07 21:47 37.87140 -76.68159 34937 ft 523 kts 14°
2026-05-07 21:48 37.93591 -76.63949 34924 ft 519 kts 13°
2026-05-07 21:48 38.00050 -76.59906 34921 ft 517 kts 12°
2026-05-07 21:49 38.06509 -76.55880 34927 ft 518 kts 12°
2026-05-07 21:49 38.12966 -76.51785 34975 ft 519 kts 13°
2026-05-07 21:50 38.19399 -76.47667 34896 ft 517 kts 13°
2026-05-07 21:50 38.25837 -76.43546 34885 ft 519 kts 13°
2026-05-07 21:51 38.32083 -76.38622 34890 ft 540 kts 26°
2026-05-07 21:51 38.38053 -76.32783 34942 ft 541 kts 27°
2026-05-07 21:52 38.44018 -76.26935 34936 ft 541 kts 27°
2026-05-07 21:52 38.49979 -76.21087 34931 ft 540 kts 27°
2026-05-07 21:53 38.55925 -76.15250 34335 ft 538 kts 27°
2026-05-07 21:53 38.58893 -76.12333 33630 ft 539 kts 27°
2026-05-07 21:53 38.61913 -76.09368 32832 ft 542 kts 27°
2026-05-07 21:54 38.64862 -76.06491 32311 ft 537 kts 27°
2026-05-07 21:54 38.67849 -76.03646 31799 ft 533 kts 26°
2026-05-07 21:54 38.70830 -76.00861 31316 ft 528 kts 25°
2026-05-07 21:54 38.73844 -75.98084 30903 ft 524 kts 25°
2026-05-07 21:55 38.76806 -75.95367 30288 ft 524 kts 26°
2026-05-07 21:55 38.79767 -75.92646 29605 ft 525 kts 26°
2026-05-07 21:55 38.82721 -75.89910 28973 ft 523 kts 27°
2026-05-07 21:55 38.85645 -75.87169 28442 ft 518 kts 27°
2026-05-07 21:56 38.88538 -75.84434 27899 ft 514 kts 27°
2026-05-07 21:56 38.91415 -75.81706 27079 ft 516 kts 28°
2026-05-07 21:56 38.94313 -75.78966 26443 ft 516 kts 28°
2026-05-07 21:56 38.97189 -75.76247 25829 ft 512 kts 28°
2026-05-07 21:57 39.00049 -75.73543 25249 ft 509 kts 28°
2026-05-07 21:57 39.02891 -75.70856 24732 ft 504 kts 28°
2026-05-07 21:57 39.05699 -75.68198 24243 ft 499 kts 29°
2026-05-07 21:57 39.08471 -75.65565 23983 ft 488 kts 29°
2026-05-07 21:58 39.11154 -75.63004 23854 ft 474 kts 29°
2026-05-07 21:58 39.13784 -75.60492 23591 ft 465 kts 29°
2026-05-07 21:58 39.16352 -75.58043 23313 ft 455 kts 28°
2026-05-07 21:58 39.18890 -75.55632 22721 ft 453 kts 29°
2026-05-07 21:59 39.21422 -75.53234 22210 ft 449 kts 29°
2026-05-07 21:59 39.23924 -75.50867 21722 ft 444 kts 28°
2026-05-07 21:59 39.26428 -75.48572 21244 ft 439 kts 27°
2026-05-07 21:59 39.28933 -75.46353 20778 ft 434 kts 27°
2026-05-07 22:00 39.31424 -75.44186 20392 ft 428 kts 26°
2026-05-07 22:00 39.33854 -75.42071 20283 ft 415 kts 27°
2026-05-07 22:00 39.36204 -75.40009 20157 ft 403 kts 27°
2026-05-07 22:00 39.38490 -75.37985 19961 ft 394 kts 27°
2026-05-07 22:01 39.40726 -75.35993 19734 ft 385 kts 27°
2026-05-07 22:01 39.42933 -75.34020 19540 ft 377 kts 27°
2026-05-07 22:01 39.45054 -75.32132 19243 ft 373 kts 27°
2026-05-07 22:01 39.47208 -75.30221 18914 ft 370 kts 27°
2026-05-07 22:02 39.49321 -75.28346 18576 ft 367 kts 27°
2026-05-07 22:02 39.51418 -75.26473 18230 ft 365 kts 28°
2026-05-07 22:02 39.53482 -75.24578 17896 ft 363 kts 29°
2026-05-07 22:02 39.55526 -75.22660 17486 ft 362 kts 29°
2026-05-07 22:03 39.57551 -75.20742 17112 ft 360 kts 30°
2026-05-07 22:03 39.59570 -75.18825 17019 ft 359 kts 29°
2026-05-07 22:03 39.61591 -75.16914 17034 ft 360 kts 29°
2026-05-07 22:03 39.63620 -75.15001 17035 ft 361 kts 29°
2026-05-07 22:04 39.65652 -75.13091 17001 ft 359 kts 29°
2026-05-07 22:04 39.67673 -75.11196 16613 ft 357 kts 29°
2026-05-07 22:04 39.69704 -75.09356 16240 ft 355 kts 27°
2026-05-07 22:04 39.71748 -75.07583 15879 ft 352 kts 26°
2026-05-07 22:05 39.73104 -75.06433 15646 ft 351 kts 26°
2026-05-07 22:05 39.75145 -75.04713 15281 ft 350 kts 26°
2026-05-07 22:05 39.77183 -75.02991 14938 ft 348 kts 26°
2026-05-07 22:05 39.79205 -75.01266 14597 ft 347 kts 26°
2026-05-07 22:06 39.81215 -74.99539 14264 ft 345 kts 26°
2026-05-07 22:06 39.83211 -74.97819 13948 ft 344 kts 27°
2026-05-07 22:06 39.85200 -74.96100 13622 ft 342 kts 27°
2026-05-07 22:06 39.87167 -74.94361 13277 ft 341 kts 28°
2026-05-07 22:07 39.89128 -74.92584 13039 ft 338 kts 28°
2026-05-07 22:07 39.91045 -74.90831 13030 ft 337 kts 29°
2026-05-07 22:07 39.92855 -74.88851 12978 ft 341 kts 40°
2026-05-07 22:07 39.94464 -74.86574 12632 ft 341 kts 43°
2026-05-07 22:08 39.96045 -74.84289 12315 ft 338 kts 43°
2026-05-07 22:08 39.97611 -74.82034 12014 ft 334 kts 43°
2026-05-07 22:08 39.99167 -74.79802 11696 ft 331 kts 43°
2026-05-07 22:08 40.00706 -74.77598 11379 ft 328 kts 43°
2026-05-07 22:09 40.02237 -74.75413 11090 ft 324 kts 42°
2026-05-07 22:09 40.03751 -74.73248 11007 ft 322 kts 42°
2026-05-07 22:09 40.05263 -74.71081 11015 ft 323 kts 42°
2026-05-07 22:09 40.06774 -74.68916 10868 ft 321 kts 42°
2026-05-07 22:10 40.08269 -74.66765 10549 ft 319 kts 42°
2026-05-07 22:10 40.09751 -74.64630 10251 ft 315 kts 42°
2026-05-07 22:10 40.11227 -74.62506 9788 ft 318 kts 42°
2026-05-07 22:10 40.12718 -74.60364 9382 ft 317 kts 42°
2026-05-07 22:11 40.14193 -74.58244 9038 ft 313 kts 43°
2026-05-07 22:11 40.15645 -74.56149 8709 ft 309 kts 43°
2026-05-07 22:11 40.17077 -74.54078 8403 ft 305 kts 43°
2026-05-07 22:11 40.18486 -74.52037 8095 ft 300 kts 44°
2026-05-07 22:12 40.19876 -74.50023 7776 ft 296 kts 44°
2026-05-07 22:12 40.21281 -74.48077 7460 ft 291 kts 41°
2026-05-07 22:12 40.22715 -74.46235 7157 ft 287 kts 40°
2026-05-07 22:12 40.24150 -74.44450 6838 ft 282 kts 40°
2026-05-07 22:13 40.25567 -74.42699 6543 ft 278 kts 40°
2026-05-07 22:13 40.26960 -74.40970 6228 ft 274 kts 41°
2026-05-07 22:13 40.28334 -74.39261 5881 ft 271 kts 41°
2026-05-07 22:13 40.29696 -74.37558 5484 ft 270 kts 41°
2026-05-07 22:14 40.31045 -74.35860 5098 ft 268 kts 42°
2026-05-07 22:14 40.32403 -74.34147 4713 ft 267 kts 41°
2026-05-07 22:14 40.33739 -74.32461 4331 ft 266 kts 42°
2026-05-07 22:14 40.35066 -74.30780 4042 ft 262 kts 42°
2026-05-07 22:15 40.36380 -74.29113 4033 ft 265 kts 41°
2026-05-07 22:15 40.37710 -74.27428 4034 ft 266 kts 42°
2026-05-07 22:15 40.39038 -74.25743 4030 ft 266 kts 42°
2026-05-07 22:15 40.40367 -74.24056 4024 ft 266 kts 42°
2026-05-07 22:16 40.41694 -74.22369 4022 ft 266 kts 42°
2026-05-07 22:16 40.43022 -74.20680 4027 ft 266 kts 43°
2026-05-07 22:16 40.44352 -74.18989 4024 ft 266 kts 41°
2026-05-07 22:16 40.45679 -74.17299 4025 ft 266 kts 42°
2026-05-07 22:17 40.47003 -74.15611 4021 ft 265 kts 41°
2026-05-07 22:17 40.48325 -74.13923 4022 ft 265 kts 43°
2026-05-07 22:17 40.49646 -74.12233 4023 ft 264 kts 41°
2026-05-07 22:17 40.50921 -74.10602 4018 ft 248 kts 42°
2026-05-07 22:18 40.52164 -74.09153 4019 ft 233 kts 33°
2026-05-07 22:18 40.54871 -74.06861 4026 ft 231 kts 30°
2026-05-07 22:18 40.56226 -74.05718 4034 ft 231 kts 30°
2026-05-07 22:19 40.57579 -74.04569 4034 ft 232 kts 31°
2026-05-07 22:19 40.58930 -74.03421 4062 ft 231 kts 29°
2026-05-07 22:19 40.60202 -74.02132 4029 ft 233 kts 47°
2026-05-07 22:19 40.60885 -74.00207 4038 ft 238 kts 79°
2026-05-07 22:20 40.60691 -73.98046 4033 ft 243 kts 112°
2026-05-07 22:20 40.59789 -73.96160 4043 ft 244 kts 122°
2026-05-07 22:20 40.58945 -73.94271 4030 ft 236 kts 118°
2026-05-07 22:20 40.58163 -73.92389 4022 ft 234 kts 117°
2026-05-07 22:21 40.57388 -73.90511 4024 ft 234 kts 117°
2026-05-07 22:21 40.56612 -73.88629 4026 ft 234 kts 117°
2026-05-07 22:21 40.55839 -73.86756 4005 ft 232 kts 117°
2026-05-07 22:21 40.55072 -73.84896 3666 ft 231 kts 117°
2026-05-07 22:22 40.54309 -73.83038 3316 ft 230 kts 117°
2026-05-07 22:22 40.53553 -73.81188 3048 ft 228 kts 117°
2026-05-07 22:22 40.52803 -73.79347 3023 ft 229 kts 117°
2026-05-07 22:22 40.52056 -73.77514 2801 ft 227 kts 117°
2026-05-07 22:23 40.51481 -73.75572 2531 ft 221 kts 104°
2026-05-07 22:23 40.51333 -73.73633 2401 ft 209 kts 83°
2026-05-07 22:23 40.51525 -73.71791 2267 ft 198 kts 77°
2026-05-07 22:23 40.51921 -73.70095 2127 ft 192 kts 65°
2026-05-07 22:24 40.52574 -73.68589 2041 ft 189 kts 47°
2026-05-07 22:24 40.53594 -73.67565 2025 ft 184 kts 18°
2026-05-07 22:24 40.54840 -73.67352 2029 ft 181 kts 354°
2026-05-07 22:24 40.56103 -73.67445 2028 ft 182 kts 355°
2026-05-07 22:25 40.57368 -73.67535 2027 ft 182 kts 355°
2026-05-07 22:25 40.58630 -73.67622 2029 ft 182 kts 355°
2026-05-07 22:25 40.59895 -73.67711 2023 ft 182 kts 355°
2026-05-07 22:25 40.61158 -73.67801 2026 ft 181 kts 355°
2026-05-07 22:26 40.62402 -73.67888 2025 ft 178 kts 354°
2026-05-07 22:26 40.63639 -73.67975 2023 ft 179 kts 354°
2026-05-07 22:26 40.64881 -73.68062 2024 ft 179 kts 355°
2026-05-07 22:26 40.66121 -73.68149 2040 ft 179 kts 355°
2026-05-07 22:27 40.67358 -73.68284 2038 ft 177 kts 347°
2026-05-07 22:27 40.68489 -73.68876 2027 ft 175 kts 327°
2026-05-07 22:27 40.69381 -73.69954 2019 ft 176 kts 307°
2026-05-07 22:27 40.70057 -73.71303 2025 ft 176 kts 304°
2026-05-07 22:28 40.70720 -73.72638 1789 ft 174 kts 304°
2026-05-07 22:28 40.71384 -73.73964 1721 ft 174 kts 304°
2026-05-07 22:28 40.72054 -73.75301 1726 ft 176 kts 304°
2026-05-07 22:28 40.72725 -73.76640 1729 ft 175 kts 304°
2026-05-07 22:29 40.73389 -73.77965 1740 ft 165 kts 304°
2026-05-07 22:29 40.73976 -73.79154 1534 ft 147 kts 303°
2026-05-07 22:29 40.74507 -73.80268 1263 ft 140 kts 303°
2026-05-07 22:29 40.75037 -73.81333 960 ft 139 kts 307°
2026-05-07 22:30 40.75584 -73.82377 692 ft 138 kts 304°
2026-05-07 22:30 40.76090 -73.83447 428 ft 137 kts 304°
2026-05-07 22:30 40.76599 -73.84505 277 ft 137 kts 306°
2026-05-07 22:30 40.77122 -73.85549 110 ft 136 kts 304°
2026-05-07 22:31 40.77605 -73.86582 28 ft 123 kts 305°
2026-05-07 22:31 40.78107 -73.87669 365 ft 148 kts 304°
2026-05-07 22:31 40.78726 -73.88927 874 ft 178 kts 304°
2026-05-07 22:31 40.79420 -73.90289 1805 ft 180 kts 305°
2026-05-07 22:32 40.80153 -73.91716 2174 ft 196 kts 305°
2026-05-07 22:32 40.81079 -73.93121 2332 ft 214 kts 328°
2026-05-07 22:32 40.82485 -73.93868 2885 ft 220 kts 339°
2026-05-07 22:32 40.83944 -73.94504 3586 ft 223 kts 348°
2026-05-07 22:33 40.85514 -73.94416 3931 ft 229 kts 17°
2026-05-07 22:33 40.86929 -73.93436 4008 ft 231 kts 28°
2026-05-07 22:33 40.88301 -73.92325 4014 ft 230 kts 28°
2026-05-07 22:33 40.89662 -73.91212 4014 ft 231 kts 32°
2026-05-07 22:34 40.90884 -73.89817 4017 ft 233 kts 39°
2026-05-07 22:34 40.92070 -73.88360 3919 ft 232 kts 39°
2026-05-07 22:34 40.93228 -73.86872 3590 ft 233 kts 48°
2026-05-07 22:34 40.94019 -73.84996 3318 ft 237 kts 69°
2026-05-07 22:35 40.94246 -73.82839 3065 ft 238 kts 92°
2026-05-07 22:35 40.94063 -73.80655 3021 ft 240 kts 97°
2026-05-07 22:35 40.93669 -73.78501 3024 ft 242 kts 106°
2026-05-07 22:35 40.93141 -73.76381 3025 ft 243 kts 107°
2026-05-07 22:36 40.92597 -73.74256 3022 ft 244 kts 107°
2026-05-07 22:36 40.92054 -73.72128 3023 ft 244 kts 107°
2026-05-07 22:36 40.91518 -73.70008 3022 ft 244 kts 107°
2026-05-07 22:36 40.90967 -73.67884 3023 ft 244 kts 107°
2026-05-07 22:37 40.90416 -73.65768 3022 ft 244 kts 107°
2026-05-07 22:37 40.89866 -73.63654 3023 ft 243 kts 107°
2026-05-07 22:37 40.89320 -73.61542 3024 ft 243 kts 107°
2026-05-07 22:37 40.88786 -73.59426 3020 ft 243 kts 107°
2026-05-07 22:38 40.88253 -73.57308 3022 ft 243 kts 107°
2026-05-07 22:38 40.87726 -73.55221 3008 ft 234 kts 107°
2026-05-07 22:38 40.87345 -73.53865 3020 ft 232 kts 110°
2026-05-07 22:38 40.86676 -73.51924 3019 ft 232 kts 116°
2026-05-07 22:39 40.85935 -73.50032 3019 ft 232 kts 117°
2026-05-07 22:39 40.85044 -73.48267 2998 ft 231 kts 134°
2026-05-07 22:39 40.83751 -73.47039 2704 ft 229 kts 160°
2026-05-07 22:39 40.82216 -73.46668 2384 ft 224 kts 188°
2026-05-07 22:40 40.80769 -73.47238 2075 ft 216 kts 214°
2026-05-07 22:40 40.79694 -73.48564 1748 ft 210 kts 238°
2026-05-07 22:40 40.78821 -73.50118 1714 ft 211 kts 234°
2026-05-07 22:40 40.77959 -73.51621 1715 ft 197 kts 234°
2026-05-07 22:41 40.77158 -73.53009 1719 ft 185 kts 233°
2026-05-07 22:41 40.76389 -73.54345 1737 ft 181 kts 236°
2026-05-07 22:41 40.75629 -73.55666 1729 ft 180 kts 234°
2026-05-07 22:41 40.74875 -73.56975 1728 ft 178 kts 234°
2026-05-07 22:42 40.74120 -73.58282 1720 ft 179 kts 235°
2026-05-07 22:42 40.73363 -73.59592 1722 ft 180 kts 236°
2026-05-07 22:42 40.72604 -73.60909 1730 ft 180 kts 234°
2026-05-07 22:42 40.71847 -73.62223 1726 ft 181 kts 235°
2026-05-07 22:43 40.71093 -73.63534 1719 ft 179 kts 234°
2026-05-07 22:43 40.70339 -73.64845 1731 ft 180 kts 235°
2026-05-07 22:43 40.69615 -73.66192 1718 ft 181 kts 245°
2026-05-07 22:43 40.69235 -73.67765 1722 ft 180 kts 267°
2026-05-07 22:44 40.69312 -73.69383 1725 ft 177 kts 287°
2026-05-07 22:44 40.69828 -73.70839 1726 ft 176 kts 305°
2026-05-07 22:44 40.70500 -73.72188 1730 ft 175 kts 304°
2026-05-07 22:44 40.71165 -73.73524 1724 ft 174 kts 304°
2026-05-07 22:45 40.71832 -73.74857 1729 ft 173 kts 304°
2026-05-07 22:45 40.72457 -73.76104 1732 ft 157 kts 304°
2026-05-07 22:45 40.73026 -73.77241 1715 ft 144 kts 305°
2026-05-07 22:45 40.73573 -73.78334 1524 ft 140 kts 305°
2026-05-07 22:46 40.74109 -73.79395 1296 ft 138 kts 305°
2026-05-07 22:46 40.74641 -73.80445 1059 ft 137 kts 305°
2026-05-07 22:46 40.75157 -73.81498 825 ft 137 kts 304°
2026-05-07 22:46 40.75665 -73.82568 630 ft 138 kts 305°
2026-05-07 22:47 40.76199 -73.83618 449 ft 138 kts 308°
2026-05-07 22:47 40.76719 -73.84677 277 ft 137 kts 302°
2026-05-07 22:47 40.77204 -73.85749 89 ft 134 kts 307°
2026-05-07 22:47 40.77710 -73.86715 17 ft 118 kts 298°
2026-05-07 22:48 40.78220 -73.87688 177 ft 144 kts 307°
2026-05-07 22:48 40.78872 -73.88836 692 ft 173 kts 308°
2026-05-07 22:48 40.79644 -73.90207 1384 ft 192 kts 307°
2026-05-07 22:48 40.80488 -73.91651 2144 ft 211 kts 313°
2026-05-07 22:49 40.81709 -73.92930 2336 ft 240 kts 331°
2026-05-07 22:49 40.83356 -73.93724 2751 ft 263 kts 348°
2026-05-07 22:49 40.85079 -73.94078 3409 ft 232 kts 352°
2026-05-07 22:49 40.86589 -73.94222 3806 ft 216 kts 358°
2026-05-07 22:50 40.88021 -73.93789 3878 ft 213 kts 31°